Wetbulb
75.00 75.92 77.92 74.60 66.45 63.39 57.87 58.61 61.70 60.62 61.86 64.38 65.30 63.38 62.43 64.81 63.89 60.43 72.11 73.54 73.48 73.97 75.64 76.42 77.31 77.14 76.80 76.82 77.86 77.76 77.12 77.00 76.88 76.89 77.42 77.91 78.16 78.02 77.98 77.94 77.74 77.41 77.11 77.00 77.02 77.02 76.77 76.71 76.68
77.26 76.27 76.03 72.08 61.21 56.07 57.31 61.30 60.21 63.29 64.80 65.65 64.06 64.69 63.59 63.81 68.90 69.18 70.65 73.75 73.88 73.58 75.48 76.72 77.76 77.23 77.30 76.27 78.16 78.03 77.43 77.23 77.20 77.59 77.54 77.92 78.28 78.09 77.65 77.49 77.55 77.58 77.02 77.41 77.11 77.02 76.83 76.41 76.63
77.19 76.32 71.89 67.17 59.00 55.84 57.52 62.09 62.85 64.92 66.52 65.58 63.94 65.08 65.72 65.62 69.11 70.04 72.69 73.86 74.64 73.19 74.55 77.70 78.18 77.55 77.21 77.00 77.72 78.24 78.02 77.58 77.21 77.30 77.24 77.57 77.41 78.19 77.66 77.11 77.27 77.32 77.36 77.41 77.27 76.91 76.91 76.35 76.21
75.81 75.30 73.09 59.19 58.66 60.69 61.51 63.02 64.66 65.02 66.18 67.02 66.11 64.32 67.62 70.55 69.66 71.92 73.33 73.69 73.72 73.05 74.64 77.75 78.66 78.19 77.90 77.71 77.67 78.41 78.36 78.06 77.70 77.69 77.03 76.98 77.39 77.46 77.10 76.95 77.01 77.32 77.10 77.24 77.13 76.80 77.10 76.30 76.02
75.55 70.38 62.57 60.10 59.55 61.91 63.95 64.70 64.89 64.09 65.76 66.30 67.17 64.86 66.03 70.37 72.22 72.68 73.04 73.32 73.35 73.53 75.40 76.93 78.69 78.69 78.70 78.73 78.36 78.83 78.69 78.56 78.28 77.76 76.90 77.06 77.40 77.65 77.05 77.02 76.94 77.05 76.72 76.50 76.66 77.11 76.85 76.49 75.96
69.26 67.16 59.22 57.39 59.24 61.91 64.04 65.54 65.20 64.65 65.31 65.81 66.36 67.33 68.44 72.16 70.97 71.90 72.87 73.33 73.76 75.10 75.47 76.05 78.45 78.62 78.94 78.73 78.61 78.65 78.19 77.96 78.11 77.74 77.33 77.17 77.69 77.31 77.62 77.13 76.87 76.74 76.41 76.80 76.30 76.61 76.68 76.35 75.99
67.14 64.71 60.20 58.97 59.06 60.46 62.33 65.35 64.25 64.45 65.00 65.15 67.70 66.61 70.09 70.30 71.26 72.09 72.53 72.98 73.81 74.89 75.54 76.62 76.20 77.66 77.73 78.38 78.55 78.52 78.43 78.20 78.47 78.06 78.12 77.86 77.00 76.96 76.90 76.95 77.10 76.55 76.85 76.34 76.63 76.65 76.16 76.38 76.43
68.50 65.40 59.43 60.04 58.73 58.91 62.62 63.88 65.14 64.43 63.16 68.07 68.44 64.13 68.65 71.01 71.32 71.89 72.16 72.42 73.78 74.68 75.68 75.49 77.08 75.86 76.24 76.71 78.48 77.86 77.75 78.16 77.48 77.48 77.33 76.79 76.99 76.77 76.96 76.62 76.57 76.80 76.47 76.64 76.65 76.24 75.55 76.15 76.21
68.03 62.76 59.99 59.36 59.34 60.50 63.30 61.28 63.77 65.17 63.38 64.58 66.48 68.85 72.15 72.73 71.23 70.51 70.41 70.93 72.40 73.43 75.14 75.71 76.34 77.64 78.06 77.25 76.83 77.77 77.71 77.28 77.42 77.23 77.12 77.13 76.32 76.88 77.11 76.84 76.86 76.66 76.56 76.72 76.65 76.05 76.13 76.63 76.01
64.13 60.40 59.01 62.67 63.14 61.73 62.29 61.61 61.52 61.69 61.77 61.95 65.26 70.80 73.58 72.01 70.51 69.35 68.87 68.95 70.64 71.82 73.92 74.71 76.25 76.33 77.04 75.97 78.00 76.55 75.64 76.14 76.58 77.30 77.30 76.60 76.60 76.48 75.88 77.41 77.10 76.83 76.72 76.66 76.56 76.34 76.09 76.48 75.26
64.02 59.70 61.80 61.70 63.37 63.20 62.60 61.95 62.90 61.17 60.22 62.68 61.07 69.67 72.44 71.55 70.74 70.10 69.57 70.11 70.67 72.50 73.65 74.76 76.33 77.19 76.43 76.55 76.74 76.18 76.59 76.90 77.10 77.16 77.59 77.69 78.20 77.23 76.39 77.07 76.27 76.65 76.66 75.89 76.18 75.97 75.49 74.14 74.48
60.56 62.47 61.31 61.42 61.16 60.43 59.12 61.58 60.82 61.75 61.63 63.40 62.71 66.93 72.49 71.79 71.28 71.09 70.71 71.04 71.48 72.09 73.03 74.23 75.59 77.34 76.84 76.99 76.49 76.13 75.37 75.95 76.07 76.56 77.90 78.23 77.11 76.08 76.19 76.84 74.04 76.38 75.95 74.67 75.74 73.82 73.90 73.57 73.97
60.28 61.05 60.85 60.26 59.81 59.26 59.64 58.26 58.70 59.64 61.45 62.98 61.85 64.94 71.48 72.20 72.90 73.27 73.12 72.49 72.62 72.23 73.20 74.42 75.89 78.84 78.25 78.74 75.53 76.59 75.01 74.66 75.73 76.09 78.10 76.61 75.85 76.02 76.35 75.38 76.36 74.41 75.22 74.68 74.85 76.21 74.44 75.51 73.98
60.77 59.09 58.34 59.44 58.57 58.22 56.91 57.54 58.77 59.45 60.83 60.97 60.87 63.31 68.26 71.72 73.19 74.03 74.21 73.41 72.66 72.97 73.37 74.89 76.01 77.85 77.55 77.86 79.39 77.85 75.56 75.59 75.03 76.40 76.60 77.68 76.85 77.09 76.63 75.79 76.72 76.03 74.58 74.63 75.16 76.35 74.98 75.52 73.69
59.04 56.30 58.16 57.35 57.46 56.74 58.05 56.09 56.59 58.43 59.71 59.65 60.59 64.33 65.92 71.23 72.83 73.76 74.75 74.47 73.86 74.02 74.34 75.09 76.26 76.90 77.67 78.93 77.63 77.09 75.91 75.50 74.81 75.21 79.14 78.07 78.22 78.41 77.96 76.01 75.41 75.23 75.16 77.49 76.93 77.19 75.24 73.92 73.65
56.84 57.30 54.46 57.15 56.83 56.86 57.05 54.43 57.44 58.98 58.69 58.43 59.36 61.55 65.72 68.22 72.08 73.88 75.16 75.45 75.31 74.94 75.68 76.41 76.11 76.35 77.19 78.14 77.73 76.83 75.93 75.30 75.38 74.86 77.36 78.70 78.82 78.61 77.94 75.56 75.37 76.22 77.12 74.21 74.07 75.16 73.62 73.22 72.76
55.48 52.85 52.62 54.07 57.00 55.91 55.76 54.39 57.93 59.93 58.99 59.10 60.01 61.60 65.95 68.51 70.71 74.28 74.97 75.55 75.54 75.72 77.11 77.63 78.22 76.21 76.96 78.94 77.09 77.41 79.09 76.11 75.40 75.64 75.44 79.08 77.49 77.12 76.64 74.48 74.57 78.66 74.70 74.10 73.66 73.03 73.45 72.77 72.79
52.67 52.20 53.29 52.71 55.54 55.54 55.08 54.96 57.90 58.83 59.25 61.66 63.07 63.62 65.81 67.90 70.21 74.25 75.16 75.63 76.09 75.61 75.99 77.49 77.80 79.20 79.59 77.79 78.63 76.17 75.21 75.18 75.43 75.43 75.42 78.43 77.19 77.76 76.46 74.62 76.42 77.12 74.54 75.89 75.43 76.43 75.25 73.46 72.59
53.77 52.97 52.48 53.95 55.28 54.65 54.58 54.95 56.88 59.34 60.49 61.84 64.03 65.33 66.78 67.92 72.04 74.71 74.83 75.30 75.96 75.90 75.70 76.80 77.39 80.33 78.28 76.17 75.38 75.13 73.86 74.51 74.51 75.00 77.75 78.35 77.06 78.05 78.86 75.61 76.17 76.87 75.52 76.63 77.60 77.22 76.05 74.16 76.07
53.92 52.94 53.41 54.38 54.87 54.55 54.82 54.26 56.83 58.81 60.00 61.70 63.46 65.52 67.89 69.93 71.39 73.33 74.31 75.01 75.43 75.85 76.28 76.43 77.03 78.83 78.18 77.13 76.49 76.68 76.68 75.26 75.33 75.01 77.17 76.76 77.22 77.01 77.55 77.02 76.49 76.67 75.46 78.28 77.41 77.38 74.95 75.23 76.19
54.23 53.15 53.45 52.81 54.70 55.77 54.78 54.06 56.27 59.01 60.59 62.64 64.09 65.82 67.11 68.65 70.73 72.06 73.45 74.51 74.91 75.47 75.96 76.85 77.84 78.35 78.88 79.16 77.73 77.71 77.82 77.48 75.64 75.23 74.63 76.02 76.94 77.81 78.00 76.94 77.29 78.00 76.76 75.13 76.93 76.77 76.44 73.19 75.78
53.44 55.35 53.62 52.86 52.71 50.62 55.38 50.43 55.90 57.26 58.20 59.70 62.27 64.20 65.91 67.01 68.46 70.60 72.13 73.00 73.28 75.56 76.56 77.18 78.53 78.55 78.94 79.58 77.68 75.26 71.61 73.33 74.75 75.71 75.00 75.22 77.82 77.73 77.92 78.36 77.80 77.78 76.77 76.43 76.82 77.89 77.47 76.80 73.69
54.16 55.53 54.25 54.05 53.20 52.99 53.21 50.78 55.33 57.86 56.09 58.13 61.63 63.23 64.75 66.48 68.57 68.33 69.18 70.57 71.18 72.04 74.14 75.90 79.32 79.93 79.67 79.51 78.63 75.77 74.50 73.59 75.89 72.53 74.90 77.20 77.65 77.94 76.89 78.13 78.32 78.42 76.96 77.69 77.69 78.23 77.46 75.79 74.18
56.33 54.94 55.52 55.66 53.92 49.10 52.85 52.08 51.78 55.70 57.41 59.17 61.21 62.46 63.86 65.39 67.19 69.57 70.87 71.59 71.52 72.36 72.34 73.12 74.13 78.21 79.75 78.28 78.67 78.76 78.85 76.87 74.32 74.38 73.14 74.28 74.73 76.53 77.24 77.81 78.67 79.10 77.94 78.08 78.08 79.01 78.56 77.50 76.58
55.83 54.02 49.39 48.82 49.16 48.94 54.45 51.61 53.40 57.55 59.51 59.75 61.04 61.79 63.32 65.15 66.97 67.75 68.89 69.01 70.36 70.61 70.95 72.13 72.15 74.48 77.15 77.97 77.67 78.56 78.85 78.66 76.88 76.33 74.29 69.69 74.25 74.94 77.08 77.69 78.08 78.31 79.23 79.06 78.92 79.16 78.32 78.09 76.32
54.27 53.36 48.74 44.80 46.47 48.55 53.49 49.42 54.67 59.76 61.18 62.03 61.97 62.58 63.01 63.99 64.90 65.97 67.72 68.80 69.12 69.78 70.63 70.90 71.48 73.67 75.36 75.73 77.41 79.08 78.01 77.24 77.65 77.81 76.49 75.65 75.34 75.43 78.69 78.39 78.55 79.26 79.34 79.32 80.14 78.26 77.69 78.25 77.83
54.28 52.13 55.76 50.85 51.24 48.36 51.08 53.62 57.38 59.21 59.18 60.33 60.30 60.95 62.21 64.15 64.98 65.41 67.53 68.88 69.42 70.13 70.25 71.26 71.93 73.62 74.56 75.09 76.41 78.73 79.17 79.64 78.20 78.72 78.59 76.05 76.73 78.05 79.63 79.67 78.76 79.31 79.01 79.60 79.68 77.66 78.44 78.87 78.45
54.89 56.72 50.26 51.83 46.21 45.09 49.25 50.21 51.53 57.20 57.39 58.73 59.41 60.51 61.87 63.75 65.26 65.79 66.50 67.74 69.46 70.33 70.79 70.99 71.81 72.45 73.64 74.56 75.28 75.75 76.74 77.72 79.60 78.92 78.15 78.39 78.23 79.27 78.24 79.27 79.41 79.15 79.28 79.10 79.68 78.09 78.52 78.72 77.16
54.49 53.48 53.94 53.40 51.12 46.43 45.78 49.44 57.08 56.01 57.81 57.43 58.84 59.51 61.81 62.68 64.63 66.28 67.68 68.84 69.90 70.04 70.34 70.75 71.14 72.02 72.23 73.56 74.75 74.93 76.05 77.54 77.60 77.83 77.95 78.14 78.64 78.58 78.96 79.04 78.37 79.30 79.15 79.32 78.75 78.67 78.25 77.92 78.39
55.81 53.90 53.51 49.88 49.11 51.61 50.43 49.80 57.92 58.39 58.10 58.67 58.73 60.02 63.56 64.89 65.64 66.52 67.12 67.76 68.46 69.78 70.32 70.39 71.25 71.81 72.77 73.15 73.50 73.41 74.18 74.89 76.44 76.51 77.61 78.36 77.98 77.37 78.38 78.87 78.48 79.04 78.93 79.18 78.95 78.31 77.29 77.41 77.75
MSLP
1007.95 1006.99 1005.93 1005.01 1003.71 999.51 998.97 999.18 999.19 999.56 999.83 1000.36 1000.84 1001.01 1001.70 1002.23 1002.37 1004.06 1005.97 1007.04 1008.33 1009.21 1010.73 1011.71 1012.21 1012.45 1012.76 1012.89 1013.19 1013.35 1013.79 1014.13 1014.69 1014.90 1015.04 1015.12 1015.37 1015.58 1015.76 1016.07 1016.31 1016.57 1016.75 1016.96 1017.18 1017.31 1017.47 1017.66 1017.67
1005.91 1005.55 1005.28 1003.52 1001.50 998.60 998.95 999.09 999.39 1000.01 999.99 1000.04 1000.59 1000.63 1001.50 1002.78 1003.63 1004.71 1006.34 1007.42 1008.31 1009.11 1010.46 1011.48 1012.48 1012.68 1012.82 1013.35 1013.49 1013.79 1014.17 1014.50 1014.98 1015.12 1015.26 1015.59 1015.82 1015.91 1016.18 1016.36 1016.59 1016.82 1017.04 1017.13 1017.39 1017.51 1017.74 1017.87 1018.00
1006.23 1005.14 1003.61 1000.39 999.39 999.03 998.70 999.00 999.20 999.79 999.96 999.97 1000.46 1001.56 1002.29 1003.40 1004.30 1005.13 1006.89 1007.44 1008.34 1009.26 1009.97 1011.83 1012.68 1012.92 1013.13 1013.52 1013.89 1014.17 1014.41 1014.83 1015.22 1015.47 1015.64 1015.89 1016.22 1016.33 1016.49 1016.65 1016.85 1017.06 1017.29 1017.37 1017.53 1017.76 1017.88 1018.09 1018.22
1004.71 1003.44 1003.11 1002.28 999.06 999.24 998.86 999.30 998.91 999.10 999.48 1000.13 1000.21 1001.54 1003.36 1003.88 1004.47 1005.50 1007.16 1007.63 1008.33 1008.83 1010.00 1012.53 1012.89 1013.19 1013.39 1013.79 1014.08 1014.36 1014.59 1015.03 1015.42 1015.60 1015.94 1016.16 1016.48 1016.60 1016.76 1016.97 1017.21 1017.30 1017.50 1017.67 1017.74 1017.95 1018.09 1018.31 1018.46
1003.51 1002.33 1001.26 999.64 999.35 999.08 999.05 999.17 999.43 999.15 999.76 1000.17 1000.48 1001.93 1003.54 1004.46 1004.95 1006.10 1007.15 1007.82 1008.02 1008.79 1010.68 1012.32 1013.22 1013.52 1013.60 1013.92 1014.32 1014.54 1014.86 1015.23 1015.58 1015.85 1016.14 1016.44 1016.67 1016.84 1017.00 1017.19 1017.43 1017.59 1017.70 1017.85 1017.94 1018.09 1018.35 1018.48 1018.69
1001.88 1002.64 1001.85 1000.01 999.51 999.21 999.12 999.02 998.74 998.78 999.26 1000.13 1000.33 1001.60 1003.39 1004.80 1005.68 1006.37 1007.07 1007.75 1007.87 1008.55 1010.59 1012.22 1013.39 1013.81 1013.96 1014.21 1014.49 1014.84 1015.03 1015.40 1015.73 1016.05 1016.28 1016.60 1016.81 1017.01 1017.17 1017.35 1017.62 1017.73 1017.85 1018.00 1018.17 1018.30 1018.50 1018.76 1018.91
1001.25 1000.18 1000.05 999.69 999.29 999.00 999.14 999.20 998.74 998.86 999.38 1000.11 1000.33 1001.06 1003.53 1004.62 1005.72 1006.46 1007.24 1007.82 1008.12 1008.62 1010.15 1011.95 1013.07 1013.83 1014.29 1014.41 1014.57 1014.87 1015.19 1015.56 1015.91 1016.15 1016.38 1016.63 1016.87 1017.13 1017.35 1017.45 1017.63 1017.89 1017.93 1018.19 1018.27 1018.46 1018.62 1018.83 1019.05
1001.94 1000.36 999.98 999.19 998.89 999.06 999.27 998.74 999.28 999.26 999.65 1000.17 1000.52 1000.51 1002.41 1004.06 1005.58 1006.47 1007.37 1007.84 1008.32 1008.81 1009.84 1011.25 1012.28 1013.58 1014.14 1014.58 1014.89 1015.23 1015.38 1015.61 1015.97 1016.28 1016.59 1016.69 1016.92 1017.16 1017.32 1017.61 1017.84 1017.92 1018.12 1018.21 1018.37 1018.63 1018.78 1018.94 1019.17
1001.89 1000.15 999.31 999.84 999.56 999.41 999.26 999.13 999.23 999.69 999.25 999.66 1000.25 1000.68 1001.59 1003.97 1005.38 1006.29 1007.25 1007.90 1008.44 1008.97 1009.44 1010.64 1011.65 1013.09 1013.81 1014.40 1014.79 1015.22 1015.46 1015.68 1016.14 1016.43 1016.59 1016.77 1016.37 1016.81 1017.06 1017.19 1017.66 1017.99 1018.19 1018.29 1018.42 1018.66 1018.91 1018.98 1019.22
1000.91 999.41 999.18 1000.05 1000.00 1000.03 999.53 999.44 999.31 999.13 999.00 998.99 999.61 1001.40 1002.49 1004.21 1005.29 1006.01 1006.83 1007.45 1008.20 1008.85 1009.21 1009.90 1011.01 1012.86 1013.62 1013.77 1014.50 1014.97 1015.31 1015.57 1015.82 1015.94 1016.31 1016.00 1015.80 1015.92 1016.16 1016.82 1017.66 1018.03 1018.20 1018.35 1018.59 1018.75 1018.93 1019.00 1018.16
1000.15 999.69 999.64 999.84 999.95 1000.16 999.81 999.51 999.25 998.99 998.88 998.95 999.66 1001.03 1002.67 1003.96 1005.08 1005.79 1006.70 1007.32 1008.05 1008.73 1009.19 1009.69 1010.49 1012.08 1013.02 1012.81 1014.07 1014.46 1014.57 1015.10 1015.41 1016.06 1015.99 1015.79 1016.29 1016.25 1016.34 1016.71 1017.22 1017.60 1018.19 1017.95 1018.30 1018.53 1018.30 1017.91 1016.86
1000.68 999.92 1000.18 1000.02 1000.02 1000.05 999.83 999.50 999.39 999.26 998.95 999.21 999.51 1000.46 1002.34 1003.58 1004.53 1005.38 1006.24 1006.94 1007.84 1008.52 1009.01 1009.69 1010.23 1011.20 1012.05 1012.01 1012.78 1013.10 1013.51 1013.55 1013.89 1015.30 1016.07 1016.18 1016.63 1016.56 1016.85 1016.91 1016.71 1016.77 1017.25 1016.90 1017.20 1017.13 1017.32 1017.17 1016.93
1000.63 1000.25 1000.19 1000.09 1000.00 999.86 999.77 999.54 999.36 999.18 999.05 999.10 999.49 1000.33 1001.76 1003.00 1004.09 1004.97 1005.75 1006.40 1007.24 1008.08 1008.78 1009.44 1010.12 1010.95 1011.50 1012.09 1012.26 1012.40 1012.81 1013.13 1013.19 1014.66 1015.56 1016.18 1016.22 1016.31 1016.77 1016.95 1016.76 1016.81 1016.56 1016.41 1016.72 1016.62 1017.06 1016.92 1016.93
1000.47 1000.41 1000.18 999.76 999.63 999.63 999.49 999.08 999.03 998.91 999.20 999.18 999.29 999.83 1000.57 1002.16 1003.18 1004.18 1005.05 1005.68 1006.57 1007.60 1008.39 1009.14 1010.05 1011.03 1011.59 1012.06 1012.45 1012.81 1012.76 1012.98 1013.43 1013.38 1014.16 1015.27 1015.71 1016.04 1016.63 1016.96 1016.94 1016.58 1016.54 1016.11 1016.15 1016.68 1017.46 1017.39 1016.96
1000.71 1000.18 999.18 999.47 999.62 999.22 999.39 998.80 998.69 999.31 999.11 998.95 998.96 999.43 1000.10 1001.19 1002.42 1003.43 1004.38 1005.14 1006.03 1007.01 1007.97 1008.85 1010.01 1010.90 1011.65 1012.10 1012.54 1012.75 1012.51 1012.69 1013.10 1013.38 1014.10 1014.88 1015.33 1015.56 1015.94 1016.19 1016.45 1016.18 1015.89 1016.30 1016.59 1016.59 1016.78 1017.02 1016.97
1000.08 999.04 997.88 998.74 999.36 999.31 998.98 997.96 998.81 999.17 998.83 998.84 999.02 999.35 1000.10 1000.55 1001.69 1002.90 1003.84 1004.86 1005.71 1006.48 1007.51 1008.61 1009.67 1010.61 1011.39 1011.91 1012.38 1012.43 1012.29 1012.80 1012.73 1013.26 1013.73 1014.63 1015.22 1015.09 1015.60 1015.61 1015.62 1015.44 1015.55 1016.27 1016.37 1016.71 1016.56 1016.80 1016.84
998.95 997.57 998.15 998.40 999.33 999.36 999.00 998.24 998.45 999.08 999.00 999.09 999.21 999.36 1000.08 1000.62 1001.23 1002.56 1003.63 1004.74 1005.62 1006.48 1007.48 1008.42 1009.34 1010.21 1011.12 1011.74 1012.14 1012.39 1012.48 1012.59 1012.47 1012.70 1012.92 1013.95 1014.77 1014.97 1015.04 1014.95 1015.03 1015.15 1015.28 1015.98 1016.08 1016.40 1016.73 1016.60 1016.69
998.30 998.34 998.13 998.68 998.91 999.01 998.41 998.47 998.91 999.29 998.89 999.28 999.69 999.96 1000.34 1000.81 1001.71 1002.64 1003.73 1004.67 1005.55 1006.57 1007.63 1008.66 1009.31 1009.86 1010.76 1011.40 1012.08 1012.30 1012.35 1012.56 1012.27 1012.35 1012.50 1013.20 1014.11 1014.58 1015.09 1014.79 1014.69 1015.06 1015.25 1015.48 1015.94 1016.24 1016.21 1016.22 1016.20
999.89 999.43 998.89 998.98 999.52 999.33 998.86 998.97 999.15 999.49 999.25 999.84 1000.32 1000.44 1000.67 1000.97 1001.92 1003.39 1004.07 1004.83 1005.49 1006.57 1007.65 1008.66 1009.38 1009.99 1010.69 1011.21 1011.54 1011.54 1011.66 1011.86 1012.13 1011.99 1012.47 1012.82 1013.52 1014.00 1014.35 1014.33 1014.56 1014.87 1014.94 1015.46 1016.27 1016.60 1016.60 1016.40 1015.97
1000.05 999.54 998.75 999.00 999.69 999.56 998.56 998.66 999.27 999.60 999.95 1000.30 1000.88 1001.14 1001.12 1001.89 1002.63 1003.56 1004.36 1004.89 1005.44 1006.50 1007.59 1008.53 1009.18 1009.96 1010.63 1010.85 1011.05 1011.03 1011.18 1011.24 1011.58 1011.79 1011.99 1012.66 1013.11 1013.89 1013.71 1014.12 1013.89 1014.42 1014.54 1015.33 1015.77 1016.24 1016.29 1016.26 1016.00
999.80 999.36 998.99 999.22 999.14 998.87 998.70 998.17 998.94 999.54 1000.00 1000.53 1001.27 1002.10 1002.44 1002.76 1003.28 1003.97 1004.57 1005.10 1005.48 1006.41 1007.49 1008.09 1008.89 1009.63 1010.10 1010.27 1010.73 1010.65 1010.70 1011.39 1010.93 1011.26 1011.76 1012.39 1013.04 1013.28 1013.44 1013.60 1013.72 1013.79 1014.17 1014.30 1015.03 1015.44 1015.63 1015.33 1015.68
999.10 999.86 1000.06 999.69 999.29 997.75 998.57 997.62 998.08 998.88 999.30 1000.01 1000.77 1001.59 1002.68 1003.42 1004.16 1004.68 1005.07 1005.40 1005.51 1005.95 1006.98 1007.57 1008.24 1009.00 1009.62 1010.06 1010.04 1010.54 1010.31 1010.22 1010.93 1010.63 1010.98 1011.08 1011.86 1012.81 1013.25 1012.96 1013.12 1013.43 1013.55 1013.60 1014.03 1014.48 1014.70 1015.19 1015.13
1000.16 1000.48 1000.15 999.83 999.28 998.65 997.88 997.96 998.00 998.73 999.01 999.64 1000.56 1001.89 1002.85 1003.61 1004.19 1004.86 1005.38 1006.00 1006.32 1006.66 1006.77 1007.03 1007.45 1008.40 1008.92 1009.40 1009.89 1010.19 1010.12 1010.01 1010.01 1010.62 1010.85 1010.99 1010.34 1011.64 1012.26 1012.59 1012.59 1012.96 1013.15 1012.97 1013.37 1013.79 1014.31 1014.33 1014.55
1001.03 1000.65 1000.01 999.57 998.77 997.78 997.35 997.93 997.59 998.20 999.16 999.94 1001.06 1002.26 1003.10 1003.59 1004.31 1004.90 1005.58 1006.06 1006.30 1006.59 1006.92 1007.34 1007.61 1007.72 1008.21 1008.69 1008.98 1009.63 1009.16 1009.58 1009.46 1009.80 1010.40 1009.90 1008.91 1010.00 1011.28 1011.80 1011.97 1012.33 1012.58 1012.59 1012.72 1013.09 1013.57 1013.91 1013.72
1000.88 999.90 998.79 997.97 997.43 996.96 998.29 998.68 998.42 999.37 1000.21 1000.66 1001.34 1002.39 1003.13 1003.49 1003.96 1004.59 1005.24 1005.86 1006.30 1006.59 1007.02 1007.19 1007.53 1007.80 1007.84 1008.09 1007.67 1008.82 1008.69 1008.93 1009.30 1009.45 1009.42 1009.44 1009.04 1008.18 1009.21 1011.00 1011.03 1011.18 1011.54 1011.87 1012.08 1012.25 1012.60 1013.00 1013.33
1000.57 1000.77 1000.08 999.13 998.50 998.08 998.40 998.60 999.00 1000.37 1001.10 1001.85 1002.48 1002.78 1003.21 1003.42 1004.03 1004.79 1005.17 1005.90 1006.18 1006.42 1006.66 1006.95 1007.27 1007.66 1007.76 1007.74 1007.71 1007.90 1008.12 1008.01 1008.15 1008.57 1008.32 1008.22 1008.17 1007.67 1008.06 1009.38 1010.10 1010.34 1010.72 1011.15 1011.23 1011.41 1011.72 1012.08 1012.44
1001.03 1001.18 1000.67 1000.72 1000.13 999.28 998.69 998.40 999.28 1000.24 1001.02 1001.71 1002.18 1002.78 1003.23 1004.16 1004.74 1005.01 1005.37 1005.75 1006.23 1006.41 1006.51 1006.70 1006.82 1007.08 1007.12 1007.06 1006.70 1006.41 1006.53 1006.70 1006.84 1007.14 1007.50 1007.65 1007.18 1006.94 1007.06 1007.92 1008.69 1009.16 1009.58 1009.85 1010.34 1010.62 1010.78 1011.12 1011.46
1001.95 1001.75 1001.43 1000.36 1000.00 999.43 998.67 998.90 999.01 1000.23 1000.82 1001.64 1002.38 1002.95 1003.67 1004.55 1004.94 1005.11 1005.25 1005.50 1005.88 1005.98 1006.17 1006.27 1006.41 1006.53 1006.60 1006.46 1006.20 1006.08 1005.99 1005.84 1005.94 1006.28 1006.67 1006.42 1006.71 1006.47 1006.31 1006.56 1007.38 1008.08 1008.43 1008.92 1009.44 1009.57 1009.99 1010.23 1010.62
1001.47 1001.44 1001.58 1001.20 1001.34 1000.46 999.93 999.25 999.93 1000.68 1001.28 1002.08 1002.97 1003.40 1004.07 1004.54 1004.95 1005.01 1005.35 1005.53 1005.79 1005.71 1005.67 1005.85 1005.83 1006.09 1006.17 1006.10 1005.97 1005.82 1005.70 1005.37 1005.14 1005.23 1005.50 1005.72 1006.18 1006.28 1006.04 1006.24 1006.48 1006.82 1007.31 1007.98 1008.42 1008.63 1008.79 1009.24 1009.77
1002.08 1002.15 1002.13 1001.41 1001.54 1001.15 1000.92 1000.19 1000.08 1001.15 1001.95 1002.56 1003.02 1003.63 1004.60 1005.06 1005.11 1005.28 1005.40 1005.67 1005.60 1005.58 1005.66 1005.54 1005.69 1005.82 1005.83 1005.84 1005.74 1005.46 1005.10 1004.96 1004.94 1005.18 1004.76 1005.01 1005.26 1005.56 1005.64 1005.51 1005.79 1005.93 1006.45 1007.02 1007.45 1007.68 1007.97 1008.42 1008.67
Wind_Speed
12 15 7 8 8 3 15 18 17 18 18 15 12 13 10 16 17 8 18 16 24 22 19 15 14 17 17 14 14 16 17 16 17 16 16 16 16 16 16 15 14 13 13 13 13 14 13 12 13
14 6 8 7 7 12 13 15 16 14 6 8 15 13 13 15 13 19 17 17 21 20 18 18 13 17 17 15 14 15 16 17 16 15 15 15 14 14 14 14 13 12 11 12 11 12 12 11 11
17 7 11 7 2 13 13 15 8 11 10 15 12 15 16 13 15 15 21 19 22 19 19 19 16 17 17 15 14 14 16 15 15 15 15 15 13 13 13 12 12 12 10 10 10 10 11 10 10
7 7 7 5 11 14 14 12 10 13 10 9 10 13 11 15 15 20 22 19 19 19 22 18 17 17 18 17 15 13 15 15 14 14 14 13 13 12 13 11 10 10 10 9 9 9 10 9 9
11 5 6 4 12 9 12 9 7 10 10 12 16 18 14 11 16 24 22 19 17 21 21 17 15 16 16 16 15 14 14 13 14 13 14 13 11 11 12 11 11 9 9 8 7 9 8 9 9
10 11 5 9 12 10 10 10 12 11 11 5 12 16 13 13 19 22 21 20 16 22 20 18 15 14 14 16 15 14 15 14 14 14 13 13 11 10 10 10 9 8 8 7 7 8 8 8 9
16 11 8 4 7 12 10 4 11 7 14 12 7 16 12 16 19 20 19 18 17 19 19 17 15 14 13 14 15 14 14 14 13 12 11 12 11 9 8 8 8 7 7 7 7 8 8 8 9
9 6 2 4 6 13 10 8 9 12 14 4 6 6 14 19 21 20 18 18 17 16 20 17 16 13 11 10 12 13 14 13 13 12 12 11 10 10 9 7 7 7 7 7 8 8 8 8 8
8 8 3 6 8 11 8 7 8 1 3 4 6 10 14 22 23 21 19 18 15 14 17 18 17 11 14 12 11 11 12 12 11 10 10 9 10 10 12 12 13 9 9 8 9 8 8 9 8
11 9 4 4 7 6 8 6 3 4 6 12 9 9 20 21 21 21 20 19 19 18 16 16 17 14 11 11 11 11 8 7 9 9 11 10 4 7 8 14 12 10 9 9 8 8 8 10 10
7 10 10 4 2 8 11 10 8 5 6 11 7 15 19 18 19 19 20 19 19 18 14 14 17 18 14 11 10 5 8 9 8 8 8 7 3 2 4 6 7 8 9 8 9 9 8 12 10
9 9 5 9 9 10 12 11 9 10 12 7 5 9 18 19 19 18 18 18 19 18 17 16 14 16 16 10 12 11 10 9 9 11 9 5 3 5 5 3 6 5 7 9 9 8 10 11 10
11 10 7 10 11 12 12 12 11 10 6 2 4 7 18 17 18 17 18 18 19 19 18 17 15 11 10 8 8 7 9 8 9 9 13 7 7 7 6 6 4 6 5 6 6 3 4 6 7
13 11 12 12 4 4 6 6 5 1 5 5 2 5 16 17 19 18 18 18 19 19 19 17 16 13 12 10 7 6 7 8 7 9 11 10 8 7 7 6 5 6 5 7 8 8 4 9 7
10 12 9 4 2 3 6 6 7 2 2 4 3 6 5 19 17 19 18 18 19 18 19 18 17 17 14 12 10 8 8 8 9 6 8 11 7 11 8 8 6 9 9 5 5 5 6 6 7
14 13 10 11 6 5 13 11 10 3 3 3 0 4 4 10 19 17 18 17 18 19 19 18 16 18 17 14 11 9 8 9 8 8 8 10 9 9 9 8 10 8 4 8 7 8 8 8 8
8 6 4 4 3 5 4 9 11 6 3 3 5 3 5 8 9 17 16 16 17 17 17 17 17 20 18 14 12 11 9 9 9 10 10 14 13 12 8 9 5 5 8 6 8 8 8 7 7
10 9 3 3 5 6 6 7 7 3 1 6 7 2 6 6 9 14 13 15 16 16 16 16 14 15 15 12 9 10 9 10 10 10 10 14 12 13 12 10 8 7 9 5 6 5 6 8 8
6 7 7 3 3 10 5 3 5 3 6 10 8 6 6 6 9 13 10 12 15 15 15 14 14 12 12 11 12 11 12 11 10 11 12 11 12 15 13 12 11 9 11 8 8 8 9 8 6
9 9 8 3 2 8 4 3 4 3 6 7 11 10 11 11 8 11 11 11 12 13 14 14 14 12 12 11 8 9 9 11 11 11 10 13 14 13 13 13 11 13 10 9 10 10 9 8 6
12 10 7 8 3 12 7 13 10 12 7 10 12 11 12 11 10 8 9 11 13 13 13 14 14 14 14 14 10 8 7 9 10 10 11 13 14 14 15 15 12 10 11 12 13 12 13 10 8
14 5 6 9 10 9 3 1 12 9 9 8 10 11 11 11 10 9 7 5 2 8 13 11 12 14 13 14 12 13 8 12 8 8 11 12 16 14 15 14 15 12 12 12 11 10 10 10 9
8 6 6 9 12 13 12 7 13 11 8 8 11 9 10 8 9 8 9 7 5 3 3 3 12 14 13 15 16 14 15 12 10 6 8 13 12 16 16 16 14 14 12 12 12 10 11 11 11
7 10 15 14 13 13 10 4 4 9 7 9 9 7 6 6 9 8 8 6 4 5 4 2 2 7 13 13 17 18 15 14 12 12 11 9 12 13 16 17 15 14 14 14 12 12 12 12 10
11 16 11 8 10 3 8 5 7 9 7 6 8 3 4 2 7 5 6 4 3 4 3 1 2 3 7 12 12 18 18 16 18 15 12 11 11 12 15 18 16 14 15 14 13 12 13 13 12
7 9 9 12 10 12 6 6 7 8 7 7 4 4 2 4 7 5 4 4 4 4 4 4 2 4 7 10 13 15 18 13 13 16 14 13 15 12 15 19 17 17 16 16 14 13 12 13 11
4 8 10 10 17 13 12 5 10 10 6 6 1 3 5 6 7 4 3 2 4 5 6 5 4 5 7 9 10 11 13 17 15 18 16 13 12 14 15 18 19 18 18 17 16 13 13 12 12
10 11 11 10 7 11 6 4 8 9 6 3 3 7 7 9 9 9 8 6 5 6 6 6 6 7 8 8 9 8 10 14 14 16 17 17 17 17 13 15 18 18 17 17 16 14 15 13 12
9 11 7 10 9 11 10 4 8 3 3 3 9 12 15 11 9 8 9 8 8 9 8 8 8 7 9 9 8 8 10 10 14 14 16 17 15 17 18 15 15 18 18 17 17 16 15 16 15
10 15 17 10 10 9 11 11 10 7 5 7 9 8 10 10 10 10 9 11 10 9 9 9 9 9 8 8 8 10 11 11 11 12 14 15 16 16 16 16 16 16 16 17 18 18 16 17 15
Wind_Direction
237 241 253 268 269 174 69 64 51 54 45 54 50 54 70 34 12 70 122 124 135 134 129 145 131 138 133 136 129 121 130 129 132 136 129 122 118 123 120 116 116 115 115 111 107 100 95 96 98
231 241 238 272 236 69 68 68 62 51 40 71 35 83 59 63 71 115 118 140 130 129 148 138 138 142 134 139 134 134 137 135 136 136 128 126 119 120 123 123 119 119 118 116 114 107 99 97 97
253 273 273 246 302 52 69 59 79 78 45 41 85 52 44 86 111 117 122 145 132 142 135 122 138 138 139 141 142 144 138 137 136 137 132 130 128 124 124 126 124 121 120 117 117 113 109 105 102
235 207 210 296 71 70 53 56 12 61 49 70 59 100 91 97 129 120 141 144 142 147 123 134 144 141 140 142 143 147 139 143 144 139 139 141 139 133 124 122 127 125 120 114 114 116 115 116 113
235 309 295 82 76 77 90 80 74 90 76 36 60 72 99 102 107 132 145 141 160 133 124 142 147 149 147 141 148 145 146 147 148 146 150 152 149 145 141 137 138 138 126 125 120 118 124 125 126
262 146 276 115 89 82 66 5 25 40 75 93 95 107 96 122 135 143 149 149 163 128 140 138 147 150 150 147 147 149 147 150 151 158 159 160 162 155 153 154 145 143 140 144 140 129 129 130 131
282 304 33 159 108 77 42 347 30 12 45 60 343 71 115 145 144 149 151 157 156 134 143 148 160 155 155 155 152 152 152 156 162 162 164 169 168 166 168 163 158 159 144 136 152 144 140 141 140
291 273 207 346 4 73 65 10 55 15 69 113 346 29 150 139 151 151 156 160 160 154 145 158 157 160 159 167 161 156 162 163 166 168 167 172 178 182 191 165 177 177 148 152 152 155 152 151 157
239 265 99 11 341 21 8 1 51 145 351 111 10 60 116 139 154 157 161 164 168 168 153 160 156 162 160 174 169 167 170 170 172 171 176 170 191 182 163 200 151 167 171 158 157 162 165 153 166
265 285 73 64 325 310 325 346 346 314 321 57 126 104 120 151 161 164 169 170 176 174 172 170 153 155 175 181 151 170 177 177 195 190 171 213 202 172 210 141 158 166 175 161 170 177 175 203 179
289 300 14 280 347 321 315 306 344 319 293 9 42 132 142 161 168 171 176 177 181 177 178 179 155 163 170 196 166 195 182 176 184 181 213 224 153 144 150 146 161 176 184 184 184 179 207 210 238
273 282 296 304 323 298 284 294 296 300 328 315 60 141 153 170 173 176 180 179 181 183 185 180 180 155 176 196 174 181 203 194 182 170 187 183 175 188 168 226 196 196 173 217 197 184 218 196 251
252 282 320 292 292 289 283 270 279 294 290 279 18 156 158 178 174 178 182 184 182 183 188 182 176 167 184 179 183 212 198 201 181 157 171 176 189 184 180 213 247 203 243 181 201 166 219 233 208
322 311 291 273 355 307 289 266 215 109 356 284 283 165 175 177 180 181 183 186 185 181 186 179 176 169 188 188 185 213 202 166 232 190 168 205 168 179 187 200 221 222 221 213 199 155 163 241 213
285 275 250 137 78 324 311 209 101 308 233 224 221 143 170 161 184 184 184 186 183 177 181 177 181 176 188 187 193 199 186 218 198 200 160 187 206 187 185 196 215 227 181 258 248 231 208 219 245
246 246 235 122 298 97 291 127 138 10 294 282 18 100 157 178 172 183 184 183 180 176 178 176 183 181 186 184 189 200 214 205 192 199 166 178 207 203 188 215 200 208 191 186 225 199 221 212 223
193 269 20 109 135 312 276 344 52 334 273 312 278 47 116 152 184 170 181 183 180 181 175 179 181 182 188 184 194 205 207 211 212 198 201 173 197 208 220 234 203 186 221 186 198 206 223 227 249
4 334 33 313 59 308 259 358 63 353 246 65 36 1 139 161 179 141 177 183 181 183 180 187 184 183 184 185 196 196 210 213 221 211 214 165 191 208 197 216 234 189 227 212 217 233 235 227 209
320 293 288 109 63 280 61 347 75 67 68 82 65 67 69 116 125 138 175 185 180 181 181 188 198 188 183 192 196 201 208 206 218 221 210 192 200 202 195 222 190 217 221 209 208 222 237 239 261
277 271 258 174 140 270 289 217 113 117 86 68 91 63 93 111 113 134 169 173 189 175 182 192 200 199 197 201 214 214 211 214 213 222 202 211 197 207 204 219 209 199 221 202 206 213 228 220 222
249 273 333 321 320 241 260 231 177 145 165 129 108 93 74 76 93 117 154 177 182 176 193 203 201 207 201 219 198 226 224 241 210 216 214 201 218 210 212 200 229 208 213 205 204 209 219 230 209
275 61 291 278 276 303 185 68 185 142 161 178 126 114 98 102 102 110 124 144 147 156 191 210 202 212 205 209 206 211 198 224 222 208 224 211 198 218 220 220 203 230 206 234 199 215 221 225 234
36 327 300 294 276 272 254 242 118 185 171 160 109 89 95 90 88 93 97 108 105 129 160 221 198 200 215 202 221 211 231 227 212 227 245 225 191 209 224 216 220 212 228 215 227 208 211 218 239
331 271 244 241 246 246 227 308 285 59 68 121 112 104 98 99 105 104 114 115 102 109 108 71 186 231 195 217 214 233 238 215 230 199 216 235 203 195 216 229 212 218 219 226 214 217 215 223 234
244 260 273 225 230 269 113 279 303 89 80 25 83 113 99 90 96 102 101 74 71 60 55 327 134 242 239 210 215 236 235 234 226 232 213 219 258 205 196 215 214 209 212 223 218 209 223 214 224
317 327 307 305 300 316 340 248 110 66 104 122 151 182 232 57 46 18 28 39 23 2 354 352 340 248 242 242 242 227 230 233 230 225 226 214 221 225 208 198 212 211 212 212 221 222 218 221 221
160 254 3 307 263 244 255 179 158 131 165 181 310 19 23 22 333 343 326 312 298 306 325 319 308 276 263 271 275 253 244 229 229 231 219 234 239 232 212 194 199 205 211 214 209 225 221 220 220
271 336 278 230 266 277 297 317 245 161 183 156 298 344 339 334 322 318 318 314 323 302 287 286 296 290 285 268 278 280 264 252 239 232 228 227 235 237 236 200 195 204 211 213 217 219 221 225 224
183 234 202 277 313 300 293 306 71 7 285 359 328 322 349 329 301 309 316 321 311 298 302 298 290 288 287 287 279 271 281 262 243 237 233 232 232 238 238 220 221 202 208 211 216 222 230 215 220
276 281 282 283 292 298 311 286 18 36 329 301 292 332 324 328 325 322 324 313 308 305 300 297 302 284 275 277 280 272 263 262 263 256 250 241 233 230 234 230 223 223 214 215 212 214 222 230 222